DW9688 Weather Reports


time (UTC)temp
C
wind
direction
speed
KPH
gust
KPH
rain 1hr
cm
rain 24hr
cm
rain mn
cm
humidity
%
barometer
mb
20260507204501 12 193 3.2 8.0 0.00 0.03 0.03 75 1011.8
20260507204008 12 187 4.8 9.7 0.00 0.03 0.03 74 1011.8
20260507203004 12 143 8.0 14.5 0.00 0.03 0.03 74 1011.8
20260507202455 12 86 4.8 6.4 0.00 0.03 0.03 71 1011.6
20260507201445 12 355 1.6 4.8 0.00 0.03 0.03 70 1011.6
20260507200952 13 355 1.6 4.8 0.00 0.03 0.03 69 1011.6
20260507200430 13 283 0.0 3.2 0.00 0.03 0.03 68 1011.7
20260507195432 13 282 4.8 9.7 0.00 0.03 0.03 67 1011.6
20260507194928 13 250 6.4 11.3 0.00 0.03 0.03 67 1011.6
20260507194431 13 295 6.4 11.3 0.00 0.03 0.03 66 1011.6
20260507193929 13 258 6.4 12.9 0.00 0.03 0.03 66 1011.6
20260507193429 13 284 6.4 14.5 0.00 0.03 0.03 65 1011.6
20260507192932 13 280 8.0 14.5 0.00 0.03 0.03 65 1011.6
20260507191444 13 247 4.8 9.7 0.00 0.03 0.03 64 1011.4
20260507190447 14 257 3.2 6.4 0.00 0.03 0.03 63 1011.3
20260507185930 14 203 1.6 4.8 0.00 0.03 0.03 63 1011.3
20260507185431 14 213 1.6 4.8 0.00 0.03 0.03 62 1011.3
20260507184431 14 277 3.2 8.0 0.00 0.03 0.03 60 1011.3
20260507183932 15 315 3.2 8.0 0.00 0.03 0.03 60 1011.3
20260507183443 15 327 3.2 8.0 0.00 0.03 0.03 59 1011.4
20260507182931 15 306 3.2 8.0 0.00 0.03 0.03 59 1011.6
20260507182432 15 355 4.8 8.0 0.00 0.03 0.03 58 1011.6
20260507181929 15 337 4.8 9.7 0.00 0.03 0.03 58 1011.6
20260507181428 15 334 4.8 9.7 0.00 0.03 0.03 57 1011.4
20260507180929 15 359 3.2 9.7 0.00 0.03 0.03 57 1011.4
20260507175928 15 332 3.2 6.4 0.00 0.03 0.03 56 1011.6
20260507175430 15 325 4.8 9.7 0.00 0.03 0.03 55 1011.6
20260507174930 15 355 8.0 16.1 0.00 0.03 0.03 55 1011.6
20260507174430 15 2 9.7 16.1 0.00 0.03 0.03 54 1011.6
20260507173929 15 264 8.0 12.9 0.00 0.03 0.03 53 1011.4
20260507173429 15 257 8.0 12.9 0.00 0.03 0.03 53 1011.4
20260507172930 15 280 6.4 11.3 0.00 0.03 0.03 52 1011.3
20260507172428 15 265 6.4 11.3 0.00 0.03 0.03 53 1011.3
20260507171928 15 222 6.4 14.5 0.00 0.03 0.03 52 1011.2
20260507171431 15 282 8.0 14.5 0.00 0.03 0.03 53 1011.2
20260507170925 15 282 8.0 11.3 0.00 0.03 0.03 54 1011.2
20260507170434 15 278 6.4 11.3 0.00 0.03 0.03 54 1011.2
20260507165912 15 267 6.4 11.3 0.00 0.03 0.03 56 1011.1
20260507165403 15 247 8.0 12.9 0.00 0.03 0.03 58 1011.1
20260507164919 15 245 9.7 16.1 0.00 0.03 0.03 58 1011.1
20260507164402 15 251 9.7 16.1 0.00 0.03 0.03 57 1011.2
20260507163904 15 231 8.0 12.9 0.00 0.03 0.03 56 1011.3
20260507163402 15 247 6.4 11.3 0.00 0.03 0.03 56 1011.3
20260507162902 15 278 8.0 11.3 0.00 0.03 0.03 56 1011.3
20260507161920 15 258 8.0 14.5 0.00 0.03 0.03 56 1011.2
20260507161402 15 249 8.0 14.5 0.00 0.03 0.03 57 1011.2
20260507155903 15 236 8.0 12.9 0.00 0.03 0.03 56 1011.3
20260507155417 15 274 6.4 11.3 0.00 0.03 0.03 56 1011.3
20260507154902 15 271 6.4 11.3 0.00 0.03 0.03 56 1011.3
20260507154402 15 271 6.4 14.5 0.00 0.03 0.03 57 1011.3
20260507153903 15 258 8.0 16.1 0.00 0.03 0.03 56 1011.3
20260507152902 16 222 9.7 14.5 0.00 0.03 0.03 56 1011.4
20260507152402 16 271 9.7 16.1 0.00 0.03 0.03 55 1011.4
20260507151904 16 257 9.7 16.1 0.00 0.03 0.03 52 1011.4
20260507151400 16 236 9.7 16.1 0.00 0.03 0.03 51 1011.3
20260507150357 15 211 9.7 14.5 0.00 0.03 0.03 59 1011.4
20260507145857 15 228 9.7 16.1 0.00 0.03 0.03 58 1011.4
20260507145355 15 210 9.7 16.1 0.00 0.03 0.03 59 1011.6
20260507144911 15 217 9.7 17.7 0.00 0.03 0.03 59 1011.6
20260507144355 15 226 9.7 17.7 0.00 0.03 0.03 58 1011.4
20260507143854 15 257 11.3 16.1 0.00 0.03 0.03 59 1011.4
20260507143353 15 201 11.3 19.3 0.00 0.03 0.03 57 1011.6
20260507142351 15 217 8.0 17.7 0.00 0.03 0.03 57 1011.6
20260507141343 15 214 8.0 12.9 0.00 0.03 0.03 59 1011.6
20260507140843 15 233 8.0 12.9 0.00 0.03 0.03 55 1011.7
20260507140345 15 272 8.0 12.9 0.00 0.03 0.03 53 1011.7
20260507135841 15 255 8.0 12.9 0.00 0.03 0.03 52 1011.8
20260507134841 16 234 8.0 16.1 0.00 0.03 0.03 57 1011.8
20260507134332 16 217 8.0 16.1 0.00 0.03 0.03 54 1012.0
20260507133830 16 278 6.4 11.3 0.00 0.03 0.03 54 1011.8
20260507132829 15 289 8.0 14.5 0.00 0.03 0.03 61 1011.8
20260507132331 15 307 9.7 14.5 0.00 0.03 0.03 58 1011.9
20260507131829 15 265 8.0 12.9 0.00 0.03 0.03 55 1012.0
20260507131328 15 251 8.0 12.9 0.00 0.03 0.03 55 1012.0
20260507130827 15 307 8.0 12.9 0.00 0.03 0.03 53 1012.1
20260507130328 15 263 6.4 11.3 0.00 0.03 0.03 53 1012.1
20260507125821 15 249 6.4 11.3 0.00 0.03 0.03 54 1012.2
20260507124821 15 350 8.0 14.5 0.00 0.03 0.03 57 1012.2
20260507124320 15 267 9.7 14.5 0.00 0.03 0.03 58 1012.1
20260507123818 15 260 8.0 14.5 0.00 0.03 0.03 59 1012.1
20260507123318 15 301 9.7 14.5 0.00 0.03 0.03 57 1012.2
20260507122318 15 284 9.7 17.7 0.00 0.03 0.03 56 1012.1
20260507121816 15 295 9.7 17.7 0.00 0.03 0.03 55 1012.1
20260507121317 14 271 8.0 16.1 0.00 0.03 0.03 57 1012.1
20260507120812 14 329 9.7 17.7 0.00 0.03 0.03 58 1012.1
20260507120312 14 314 9.7 17.7 0.00 0.03 0.03 59 1012.1
20260507115810 14 284 9.7 17.7 0.00 0.03 0.03 61 1012.0
20260507115307 14 271 8.0 17.7 0.00 0.03 0.03 60 1012.1
20260507114307 14 261 4.8 14.5 0.00 0.03 0.03 60 1012.0
20260507113802 15 337 4.8 11.3 0.00 0.03 0.03 59 1012.1
20260507113301 15 309 6.4 11.3 0.00 0.03 0.03 59 1012.1
20260507112306 14 221 8.0 14.5 0.00 0.03 0.03 55 1012.1
20260507111801 14 260 8.0 16.1 0.00 0.03 0.03 59 1012.1
20260507111300 14 288 8.0 16.1 0.00 0.03 0.03 60 1012.1
20260507110802 14 309 8.0 14.5 0.00 0.03 0.03 60 1012.1
20260507110304 14 308 6.4 11.3 0.00 0.05 0.03 59 1012.1
20260507105803 14 13 6.4 12.9 0.00 0.05 0.03 58 1012.0
20260507105301 14 288 8.0 12.9 0.00 0.05 0.03 59 1012.1
20260507104800 14 291 6.4 12.9 0.00 0.05 0.03 62 1012.1
20260507104302 14 5 4.8 9.7 0.00 0.05 0.03 61 1012.0
20260507103816 14 274 6.4 9.7 0.00 0.05 0.03 61 1012.1
20260507103301 13 337 6.4 9.7 0.00 0.05 0.03 64 1012.0
20260507102800 13 296 6.4 11.3 0.00 0.08 0.03 64 1012.1
20260507102318 13 234 6.4 11.3 0.00 0.10 0.03 64 1012.0
20260507101803 13 221 6.4 11.3 0.00 0.13 0.03 64 1012.1
20260507100802 13 310 8.0 14.5 0.00 0.15 0.03 64 1012.3
20260507100304 13 289 6.4 14.5 0.00 0.15 0.03 64 1012.3
20260507095305 13 26 6.4 12.9 0.00 0.25 0.03 66 1012.3
20260507094303 13 275 8.0 20.9 0.00 0.25 0.03 66 1012.3
20260507093804 13 316 8.0 20.9 0.00 0.25 0.03 68 1012.3
20260507093303 12 34 8.0 16.1 0.00 0.25 0.03 68 1012.2
20260507092801 12 271 8.0 16.1 0.00 0.25 0.03 68 1012.2
20260507092306 12 308 8.0 12.9 0.00 0.25 0.03 68 1012.2
20260507091803 12 355 11.3 17.7 0.00 0.25 0.03 69 1012.2
20260507091303 12 297 12.9 17.7 0.00 0.25 0.03 69 1012.2
20260507090801 12 318 9.7 24.1 0.00 0.25 0.03 69 1012.2
20260507084801 12 9 11.3 17.7 0.00 0.25 0.03 68 1012.1
20260507084301 12 355 11.3 17.7 0.00 0.25 0.03 69 1012.0
20260507083801 12 308 8.0 17.7 0.00 0.25 0.03 71 1011.9
20260507083302 12 355 8.0 16.1 0.00 0.25 0.03 71 1011.8
20260507082801 12 337 6.4 16.1 0.00 0.25 0.03 75 1011.7
20260507082300 11 325 6.4 12.9 0.00 0.25 0.03 76 1011.7
20260507081802 11 272 6.4 12.9 0.00 0.25 0.03 79 1011.7
20260507081302 11 321 6.4 12.9 0.00 0.25 0.03 80 1011.8
20260507080801 11 334 6.4 11.3 0.00 0.28 0.03 82 1011.7
20260507080301 11 271 6.4 11.3 0.00 0.30 0.03 81 1011.6
20260507075801 11 254 4.8 8.0 0.00 0.30 0.03 82 1011.6
20260507074304 10 239 4.8 8.0 0.00 0.30 0.03 84 1011.3
20260507073302 10 288 4.8 8.0 0.00 0.30 0.03 86 1011.2
20260507072306 10 323 3.2 6.4 0.00 0.30 0.03 87 1011.1
20260507071801 10 302 3.2 6.4 0.00 0.30 0.03 87 1011.0
20260507071302 10 314 3.2 6.4 0.00 0.30 0.03 87 1011.0
20260507070800 10 280 1.6 6.4 0.00 0.30 0.03 88 1011.0
20260507070302 10 297 3.2 4.8 0.00 0.30 0.03 88 1010.9
20260507065800 10 350 1.6 4.8 0.00 0.30 0.03 88 1010.9
20260507065305 9 323 1.6 4.8 0.00 0.30 0.03 88 1010.9
20260507064304 9 308 1.6 4.8 0.00 0.30 0.03 90 1010.7
20260507063802 9 274 1.6 3.2 0.00 0.30 0.03 91 1010.7
20260507063302 9 253 1.6 3.2 0.00 0.30 0.03 91 1010.6
20260507062801 9 253 1.6 3.2 0.00 0.30 0.03 91 1010.6
20260507062306 8 253 3.2 4.8 0.00 0.30 0.03 91 1010.4
20260507061803 8 253 3.2 4.8 0.00 0.30 0.03 91 1010.4
20260507061302 8 236 3.2 4.8 0.00 0.30 0.03 91 1010.3
20260507060302 8 225 1.6 4.8 0.00 0.30 0.03 91 1010.3
20260507055802 8 225 1.6 3.2 0.00 0.30 0.03 91 1010.2
20260507054801 8 225 3.2 4.8 0.00 0.30 0.03 91 1010.2
20260507054302 8 241 1.6 4.8 0.00 0.30 0.03 91 1010.2
20260507053800 8 205 1.6 3.2 0.00 0.30 0.03 91 1010.2
20260507053300 8 201 1.6 3.2 0.00 0.30 0.03 91 1010.1
20260507052802 8 201 1.6 3.2 0.00 0.30 0.03 91 1010.1
20260507052306 8 239 1.6 3.2 0.00 0.30 0.03 91 1010.0
20260507051802 8 303 1.6 3.2 0.00 0.30 0.03 92 1010.0
20260507050302 8 252 1.6 3.2 0.00 0.30 0.03 91 1009.8
20260507045301 8 268 3.2 4.8 0.00 0.30 0.03 91 1009.7
20260507044303 8 295 3.2 4.8 0.00 0.30 0.03 91 1009.4
20260507043816 8 303 3.2 6.4 0.00 0.30 0.03 91 1009.4
20260507043316 8 268 3.2 8.0 0.00 0.30 0.03 91 1009.4
20260507042817 8 182 1.6 8.0 0.00 0.30 0.03 91 1009.2
20260507041801 8 179 4.8 12.9 0.00 0.30 0.03 91 1009.1
20260507041301 8 128 3.2 11.3 0.00 0.30 0.03 91 1009.1
20260507040801 8 157 3.2 8.0 0.00 0.30 0.03 91 1009.1
20260507040303 8 163 4.8 9.7 0.00 0.30 0.03 91 1009.2
20260507035306 8 176 8.0 12.9 0.00 0.30 0.03 91 1009.2
20260507034304 8 176 4.8 11.3 0.00 0.30 0.03 91 1009.1
20260507033303 8 164 3.2 8.0 0.00 0.30 0.03 91 1009.1
20260507032802 8 207 3.2 8.0 0.00 0.30 0.03 91 1009.1
20260507032315 8 151 4.8 8.0 0.00 0.30 0.03 91 1009.2
20260507031801 8 159 6.4 9.7 0.00 0.30 0.03 91 1009.1
20260507030800 8 164 3.2 9.7 0.00 0.30 0.03 92 1009.1
20260507030301 8 226 3.2 6.4 0.00 0.30 0.03 92 1009.1
20260507025801 8 245 4.8 6.4 0.00 0.30 0.03 92 1009.1
20260507025306 8 234 4.8 11.3 0.00 0.30 0.03 92 1009.1
20260507024801 8 253 6.4 12.9 0.00 0.30 0.03 92 1009.1
20260507024316 8 130 8.0 12.9 0.00 0.30 0.03 92 1008.9
20260507022815 8 116 1.6 8.0 0.00 0.30 0.03 92 1008.9
20260507022306 8 222 1.6 3.2 0.00 0.30 0.03 92 1009.0
20260507021802 8 222 3.2 4.8 0.00 0.30 0.03 92 1009.0
20260507021302 8 222 3.2 4.8 0.00 0.30 0.03 92 1009.1
20260507020802 8 222 3.2 4.8 0.03 0.30 0.03 92 1009.1
20260507020306 8 232 3.2 4.8 0.03 0.30 0.03 92 1009.1
20260507015759 8 241 3.2 6.4 0.03 0.30 0.00 92 1009.0
20260507015253 8 248 3.2 6.4 0.03 0.30 0.00 92 1009.0
20260507013737 8 141 11.3 14.5 0.03 0.30 0.00 92 1008.6
20260507011732 8 80 4.8 12.9 0.03 0.30 0.00 92 1008.5
20260507011232 8 81 1.6 6.4 0.03 0.30 0.00 92 1008.6
20260507010730 8 292 1.6 3.2 0.00 0.28 0.00 92 1008.9
20260507010230 8 292 1.6 3.2 0.00 0.28 0.00 92 1008.9
20260507005730 8 292 1.6 3.2 0.00 0.28 0.00 92 1008.9
20260507004732 8 305 3.2 4.8 0.00 0.28 0.00 92 1008.9
20260507004230 8 305 3.2 6.4 0.00 0.28 0.00 92 1008.8
20260507003732 8 330 3.2 6.4 0.00 0.28 0.00 92 1008.8
20260507003230 8 324 3.2 6.4 0.00 0.28 0.00 92 1008.7
20260507002717 8 336 3.2 4.8 0.00 0.28 0.00 92 1008.6
20260507002218 8 323 3.2 4.8 0.00 0.28 0.00 92 1008.6
20260507001704 8 272 4.8 6.4 0.00 0.28 0.00 92 1008.5
20260507000702 8 242 4.8 8.0 0.00 0.28 0.00 92 1008.5
20260507000201 8 213 4.8 8.0 0.00 0.28 0.00 92 1008.5
20260506235700 8 220 4.8 6.4 0.00 0.28 0.00 92 1008.5
20260506235202 8 204 1.6 6.4 0.00 0.28 0.00 91 1008.5
20260506234657 8 188 1.6 4.8 0.00 0.28 0.00 91 1008.5
20260506234149 8 265 1.6 4.8 0.00 0.28 0.00 91 1008.5
20260506233649 8 271 3.2 6.4 0.00 0.28 0.00 91 1008.7
20260506233144 8 274 3.2 6.4 0.00 0.28 0.00 91 1008.8
20260506232644 8 284 4.8 8.0 0.00 0.28 0.00 90 1008.8
20260506232142 8 281 4.8 11.3 0.00 0.28 0.00 90 1008.8
20260506231637 8 255 6.4 11.3 0.00 0.28 0.00 89 1008.9
20260506231135 8 220 4.8 8.0 0.00 0.28 0.00 89 1008.7
20260506230647 8 276 4.8 8.0 0.00 0.28 0.00 89 1008.8
20260506230129 8 222 6.4 11.3 0.00 0.28 0.00 89 1008.8
20260506225645 8 57 6.4 11.3 0.00 0.30 0.00 90 1008.5
20260506225129 8 52 3.2 8.0 0.00 0.30 0.00 90 1008.6
20260506224631 8 275 1.6 3.2 0.00 0.30 0.00 89 1008.7
20260506224129 8 275 1.6 3.2 0.00 0.33 0.00 89 1008.7
20260506223629 8 275 1.6 4.8 0.00 0.33 0.00 89 1008.7
20260506223128 8 275 3.2 6.4 0.00 0.33 0.00 89 1008.7
20260506222130 8 224 4.8 6.4 0.00 0.38 0.00 88 1008.6
20260506221630 8 220 3.2 6.4 0.00 0.41 0.00 88 1008.6
20260506221130 8 178 1.6 4.8 0.00 0.41 0.00 88 1008.5
20260506220743 8 177 3.2 4.8 0.00 0.41 0.00 88 1008.4
20260506215629 8 187 1.6 6.4 0.00 0.41 0.41 88 1008.5
20260506215131 9 187 3.2 6.4 0.00 0.41 0.41 88 1008.5
20260506213132 9 166 3.2 6.4 0.00 0.43 0.41 88 1008.3
20260506212604 9 172 3.2 6.4 0.00 0.43 0.41 87 1008.3
20260506211603 10 223 8.0 22.5 0.00 0.48 0.41 87 1008.4
20260506211101 10 254 11.3 22.5 0.00 0.48 0.41 88 1008.4
20260506210602 10 109 14.5 20.9 0.00 0.51 0.41 88 1008.4